Location: D�derode
(51.8092°N, 10.1065°E)
Time: 06:18:07
(UTC+00:00)

SL-16 R/B - Pass Details

Date: 01 December 2020
Orbit: 841 x 849 km, 71.0° (Epoch: 23 January)

Event Time Altitude Azimuth Distance (km) Brightness Sun altitude
Rises 16:51:52 0° 211° (SSW) 3,386 6.1 -14.6°
Reaches altitude 10° 16:54:18 10° 213° (SSW) 2,455 5.3 -14.9°
Maximum altitude 16:59:57 82° 301° (WNW) 856 2.2 -15.7°
Enters shadow 17:04:56 14° 29° (NNE) 2,202 4.0 -16.5°
